DAL2543 KLAX-KSLC

Flight info

Callsign DAL2543
Flight time 1h 26m
Altitude 37000
Route ORCKA5 LAS Q70 BLIPP Q842 WINEN MLF QWENN6
Aircraft B738/M-SDE2E3FGHIRWXY/LB1

Departure

Time 2026-04-21 00:56
Airport Los Angeles International Airport (KLAX)

Arrival

Time 2026-04-21 02:22
Airport Salt Lake City International Airport (KSLC)
Time Latitude Longitude Altitude Speed Heading
2026-04-21 00:36 33.94640 -118.40647 92 ft 0 kts 263°
2026-04-21 00:43 33.94642 -118.40634 92 ft 4 kts 263°
2026-04-21 00:43 33.94645 -118.40606 92 ft 4 kts 265°
2026-04-21 00:44 33.94641 -118.40578 92 ft 4 kts 311°
2026-04-21 00:44 33.94620 -118.40562 92 ft 4 kts 349°
2026-04-21 00:44 33.94602 -118.40559 91 ft 3 kts 353°
2026-04-21 00:45 33.94644 -118.40565 92 ft 0 kts 353°
2026-04-21 00:48 33.94654 -118.40566 93 ft 3 kts 354°
2026-04-21 00:48 33.94702 -118.40573 93 ft 11 kts 353°
2026-04-21 00:48 33.94798 -118.40594 94 ft 16 kts 348°
2026-04-21 00:49 33.94871 -118.40524 93 ft 17 kts 82°
2026-04-21 00:49 33.94886 -118.40379 93 ft 18 kts 83°
2026-04-21 00:49 33.94901 -118.40230 94 ft 18 kts 83°
2026-04-21 00:49 33.94915 -118.40086 94 ft 17 kts 82°
2026-04-21 00:50 33.94931 -118.39957 92 ft 13 kts 72°
2026-04-21 00:50 33.94947 -118.39929 92 ft 0 kts 41°
2026-04-21 00:51 33.94972 -118.39914 94 ft 9 kts 17°
2026-04-21 00:51 33.95037 -118.39935 93 ft 11 kts 303°
2026-04-21 00:52 33.95038 -118.39992 93 ft 0 kts 262°
2026-04-21 00:55 33.95037 -118.40006 92 ft 15 kts 263°
2026-04-21 00:55 33.94991 -118.40460 98 ft 95 kts 263°
2026-04-21 00:55 33.94883 -118.41517 203 ft 150 kts 263°
2026-04-21 00:55 33.94738 -118.42891 721 ft 180 kts 262°
2026-04-21 00:56 33.94571 -118.44481 1250 ft 204 kts 265°
2026-04-21 00:56 33.94414 -118.46246 1700 ft 220 kts 264°
2026-04-21 00:56 33.94248 -118.48162 2148 ft 241 kts 264°
2026-04-21 00:56 33.94032 -118.50205 2622 ft 249 kts 262°
2026-04-21 00:57 33.93783 -118.52306 3075 ft 258 kts 262°
2026-04-21 00:57 33.93503 -118.54451 3532 ft 259 kts 260°
2026-04-21 00:57 33.93198 -118.56601 3980 ft 263 kts 259°
2026-04-21 00:57 33.92889 -118.58791 4436 ft 266 kts 258°
2026-04-21 00:58 33.92308 -118.60895 4867 ft 267 kts 237°
2026-04-21 00:58 33.91019 -118.62481 5340 ft 266 kts 216°
2026-04-21 00:58 33.89499 -118.63714 5788 ft 263 kts 212°
2026-04-21 00:58 33.87959 -118.64903 6348 ft 261 kts 211°
2026-04-21 00:59 33.86450 -118.66067 7191 ft 263 kts 212°
2026-04-21 00:59 33.84903 -118.67261 8029 ft 267 kts 212°
2026-04-21 00:59 33.83319 -118.68478 8842 ft 271 kts 211°
2026-04-21 00:59 33.81580 -118.69309 9724 ft 271 kts 188°
2026-04-21 01:00 33.79685 -118.69191 10464 ft 280 kts 168°
2026-04-21 01:00 33.77833 -118.68170 10661 ft 311 kts 146°
2026-04-21 01:00 33.76342 -118.66170 11080 ft 332 kts 123°
2026-04-21 01:00 33.75519 -118.63529 11770 ft 345 kts 103°
2026-04-21 01:01 33.75511 -118.60610 12458 ft 358 kts 82°
2026-04-21 01:01 33.76423 -118.57822 13123 ft 371 kts 59°
2026-04-21 01:01 33.78210 -118.55564 13804 ft 378 kts 37°
2026-04-21 01:01 33.80425 -118.53816 14447 ft 383 kts 31°
2026-04-21 01:02 33.82728 -118.52165 15038 ft 389 kts 31°
2026-04-21 01:02 33.85045 -118.50435 15640 ft 394 kts 33°
2026-04-21 01:02 33.87339 -118.48595 16264 ft 399 kts 35°
2026-04-21 01:02 33.89637 -118.46677 16889 ft 403 kts 36°
2026-04-21 01:03 33.91912 -118.44659 17492 ft 408 kts 41°
2026-04-21 01:03 33.93924 -118.42235 18096 ft 411 kts 53°
2026-04-21 01:03 33.95592 -118.39427 18646 ft 414 kts 59°
2026-04-21 01:03 33.97178 -118.36513 19015 ft 415 kts 59°
2026-04-21 01:04 33.98766 -118.33631 19020 ft 411 kts 58°
2026-04-21 01:04 34.00370 -118.30772 19032 ft 413 kts 58°
2026-04-21 01:04 34.01981 -118.27926 19176 ft 421 kts 58°
2026-04-21 01:04 34.03639 -118.25003 19748 ft 423 kts 58°
2026-04-21 01:05 34.05303 -118.22071 20315 ft 426 kts 58°
2026-04-21 01:05 34.07006 -118.19066 20450 ft 441 kts 58°
2026-04-21 01:05 34.08769 -118.15955 20549 ft 456 kts 58°
2026-04-21 01:05 34.10583 -118.12751 20662 ft 468 kts 58°
2026-04-21 01:06 34.12435 -118.09474 20961 ft 474 kts 58°
2026-04-21 01:06 34.14296 -118.06177 21417 ft 475 kts 58°
2026-04-21 01:06 34.16151 -118.02884 22011 ft 473 kts 58°
2026-04-21 01:06 34.18007 -117.99582 22448 ft 476 kts 58°
2026-04-21 01:07 34.19872 -117.96261 22806 ft 480 kts 58°
2026-04-21 01:07 34.21756 -117.92907 23174 ft 484 kts 58°
2026-04-21 01:07 34.23653 -117.89533 23535 ft 486 kts 58°
2026-04-21 01:07 34.25533 -117.86188 23874 ft 488 kts 58°
2026-04-21 01:08 34.27435 -117.82790 24219 ft 489 kts 58°
2026-04-21 01:08 34.29347 -117.79374 24579 ft 491 kts 58°
2026-04-21 01:08 34.31269 -117.75941 24891 ft 494 kts 58°
2026-04-21 01:08 34.33195 -117.72496 25210 ft 496 kts 58°
2026-04-21 01:09 34.35137 -117.69016 25538 ft 497 kts 58°
2026-04-21 01:09 34.37120 -117.65572 25867 ft 499 kts 56°
2026-04-21 01:09 34.39154 -117.62154 26145 ft 501 kts 56°
2026-04-21 01:09 34.41216 -117.58736 26397 ft 503 kts 55°
2026-04-21 01:10 34.43258 -117.55358 26661 ft 505 kts 55°
2026-04-21 01:10 34.45335 -117.51911 26953 ft 507 kts 56°
2026-04-21 01:10 34.47411 -117.48447 27192 ft 509 kts 56°
2026-04-21 01:10 34.49492 -117.44959 27476 ft 510 kts 56°
2026-04-21 01:11 34.51567 -117.41470 27807 ft 510 kts 56°
2026-04-21 01:11 34.53637 -117.37981 28170 ft 509 kts 56°
2026-04-21 01:11 34.55701 -117.34498 28565 ft 507 kts 56°
2026-04-21 01:11 34.57757 -117.31024 28950 ft 506 kts 56°
2026-04-21 01:12 34.59812 -117.27549 29332 ft 505 kts 56°
2026-04-21 01:12 34.61857 -117.24087 29707 ft 504 kts 56°
2026-04-21 01:12 34.63902 -117.20625 30083 ft 503 kts 56°
2026-04-21 01:12 34.65944 -117.17163 30337 ft 502 kts 56°
2026-04-21 01:13 34.67982 -117.13705 30575 ft 504 kts 56°
2026-04-21 01:13 34.69998 -117.10282 30882 ft 503 kts 56°
2026-04-21 01:13 34.72027 -117.06834 31277 ft 500 kts 56°
2026-04-21 01:13 34.74052 -117.03388 31535 ft 501 kts 56°
2026-04-21 01:14 34.76092 -116.99915 31724 ft 503 kts 56°
2026-04-21 01:14 34.78126 -116.96449 32018 ft 503 kts 56°
2026-04-21 01:14 34.80132 -116.93028 32350 ft 501 kts 56°
2026-04-21 01:14 34.82159 -116.89568 32633 ft 501 kts 56°
2026-04-21 01:15 34.84183 -116.86111 32894 ft 501 kts 56°
2026-04-21 01:15 34.86208 -116.82650 33191 ft 501 kts 56°
2026-04-21 01:15 34.88231 -116.79190 33453 ft 501 kts 56°
2026-04-21 01:15 34.90249 -116.75732 33705 ft 501 kts 56°
2026-04-21 01:16 34.92296 -116.72290 33959 ft 501 kts 52°
2026-04-21 01:16 34.94558 -116.69052 34183 ft 502 kts 49°
2026-04-21 01:16 34.96924 -116.65931 34426 ft 501 kts 47°
2026-04-21 01:16 34.99325 -116.62854 34642 ft 501 kts 47°
2026-04-21 01:17 35.01741 -116.59770 34842 ft 501 kts 47°
2026-04-21 01:17 35.04109 -116.56724 35050 ft 501 kts 47°
2026-04-21 01:17 35.06494 -116.53621 35328 ft 499 kts 47°
2026-04-21 01:17 35.08858 -116.50520 35607 ft 497 kts 47°
2026-04-21 01:18 35.11207 -116.47417 35781 ft 498 kts 48°
2026-04-21 01:18 35.13557 -116.44305 35945 ft 499 kts 48°
2026-04-21 01:18 35.15905 -116.41188 36180 ft 498 kts 48°
2026-04-21 01:18 35.17459 -116.39126 36331 ft 498 kts 48°
2026-04-21 01:19 35.19802 -116.36013 36577 ft 496 kts 48°
2026-04-21 01:19 35.22138 -116.32910 36789 ft 496 kts 48°
2026-04-21 01:19 35.24475 -116.29801 36894 ft 497 kts 48°
2026-04-21 01:19 35.26827 -116.26673 36873 ft 499 kts 48°
2026-04-21 01:20 35.31507 -116.20441 36870 ft 495 kts 49°
2026-04-21 01:20 35.36143 -116.14256 36879 ft 491 kts 49°
2026-04-21 01:21 35.40746 -116.08101 36903 ft 489 kts 49°
2026-04-21 01:21 35.45330 -116.01961 36897 ft 488 kts 49°
2026-04-21 01:22 35.49915 -115.95811 36916 ft 489 kts 49°
2026-04-21 01:22 35.54474 -115.89686 36918 ft 489 kts 49°
2026-04-21 01:23 35.59074 -115.83499 36931 ft 490 kts 49°
2026-04-21 01:23 35.63680 -115.77286 36935 ft 491 kts 49°
2026-04-21 01:24 35.68253 -115.71020 36945 ft 493 kts 50°
2026-04-21 01:24 35.72783 -115.64766 36933 ft 493 kts 50°
2026-04-21 01:25 35.77351 -115.58465 36943 ft 491 kts 50°
2026-04-21 01:25 35.81899 -115.52193 36948 ft 490 kts 50°
2026-04-21 01:26 35.86435 -115.45929 36945 ft 488 kts 51°
2026-04-21 01:26 35.90924 -115.39716 36950 ft 487 kts 51°
2026-04-21 01:27 35.95434 -115.33464 36954 ft 486 kts 51°
2026-04-21 01:27 35.99918 -115.27239 36952 ft 485 kts 51°
2026-04-21 01:28 36.04394 -115.21016 36926 ft 484 kts 51°
2026-04-21 01:28 36.08913 -115.14859 36919 ft 485 kts 46°
2026-04-21 01:29 36.13967 -115.09330 36930 ft 485 kts 42°
2026-04-21 01:29 36.19125 -115.03941 36862 ft 485 kts 43°
2026-04-21 01:30 36.24225 -114.98508 36853 ft 485 kts 43°
2026-04-21 01:30 36.29314 -114.93008 36864 ft 485 kts 44°
2026-04-21 01:31 36.34409 -114.87487 36850 ft 486 kts 44°
2026-04-21 01:31 36.39511 -114.81959 36838 ft 487 kts 44°
2026-04-21 01:32 36.44610 -114.76410 36817 ft 487 kts 44°
2026-04-21 01:32 36.49696 -114.70848 36814 ft 487 kts 44°
2026-04-21 01:33 36.54749 -114.65319 36811 ft 486 kts 44°
2026-04-21 01:33 36.59831 -114.59756 36809 ft 486 kts 44°
2026-04-21 01:34 36.64911 -114.54191 36808 ft 486 kts 44°
2026-04-21 01:34 36.69985 -114.48617 36820 ft 486 kts 43°
2026-04-21 01:35 36.75492 -114.43689 36836 ft 488 kts 34°
2026-04-21 01:35 36.81279 -114.39259 36828 ft 488 kts 33°
2026-04-21 01:36 36.87069 -114.34825 36832 ft 488 kts 33°
2026-04-21 01:36 36.92790 -114.30362 36836 ft 487 kts 34°
2026-04-21 01:37 36.98529 -114.25840 36851 ft 487 kts 34°
2026-04-21 01:37 37.04252 -114.21318 36869 ft 486 kts 34°
2026-04-21 01:38 37.09975 -114.16791 36856 ft 486 kts 34°
2026-04-21 01:38 37.15690 -114.12265 36877 ft 485 kts 34°
2026-04-21 01:39 37.21398 -114.07736 36878 ft 485 kts 34°
2026-04-21 01:39 37.27074 -114.03225 36888 ft 484 kts 34°
2026-04-21 01:40 37.32761 -113.98697 36889 ft 483 kts 34°
2026-04-21 01:40 37.38431 -113.94173 36899 ft 482 kts 34°
2026-04-21 01:41 37.44100 -113.89643 36910 ft 481 kts 34°
2026-04-21 01:41 37.49755 -113.85116 36915 ft 481 kts 34°
2026-04-21 01:42 37.55405 -113.80585 36938 ft 481 kts 34°
2026-04-21 01:42 37.61011 -113.76080 36928 ft 480 kts 34°
2026-04-21 01:43 37.66643 -113.71548 36931 ft 479 kts 34°
2026-04-21 01:43 37.72264 -113.67016 36922 ft 478 kts 33°
2026-04-21 01:44 37.77866 -113.62492 36930 ft 478 kts 34°
2026-04-21 01:44 37.83468 -113.57961 36925 ft 478 kts 34°
2026-04-21 01:45 37.89084 -113.53413 36932 ft 479 kts 33°
2026-04-21 01:45 37.94618 -113.48701 36919 ft 480 kts 41°
2026-04-21 01:46 37.99594 -113.43090 36920 ft 482 kts 45°
2026-04-21 01:46 38.04500 -113.37333 36930 ft 478 kts 44°
2026-04-21 01:47 38.09396 -113.31691 36925 ft 472 kts 43°
2026-04-21 01:47 38.14238 -113.26179 36919 ft 468 kts 43°
2026-04-21 01:48 38.19084 -113.20660 36950 ft 469 kts 43°
2026-04-21 01:48 38.23977 -113.15074 36983 ft 474 kts 43°
2026-04-21 01:49 38.28909 -113.09432 37014 ft 478 kts 43°
2026-04-21 01:49 38.33840 -113.03784 37011 ft 475 kts 41°
2026-04-21 01:50 38.39366 -112.99311 37022 ft 470 kts 23°
2026-04-21 01:50 38.45345 -112.96190 37028 ft 466 kts 22°
2026-04-21 01:51 38.51368 -112.93078 37021 ft 468 kts 22°
2026-04-21 01:51 38.57423 -112.89879 36997 ft 473 kts 23°
2026-04-21 01:52 38.66546 -112.85002 36932 ft 475 kts 23°
2026-04-21 01:52 38.69603 -112.83366 36538 ft 475 kts 22°
2026-04-21 01:53 38.72654 -112.81731 35772 ft 475 kts 22°
2026-04-21 01:53 38.75700 -112.80100 35156 ft 474 kts 22°
2026-04-21 01:53 38.78752 -112.78464 34465 ft 475 kts 22°
2026-04-21 01:53 38.81800 -112.76829 33755 ft 475 kts 22°
2026-04-21 01:54 38.84854 -112.75188 33012 ft 475 kts 22°
2026-04-21 01:54 38.87875 -112.73552 32597 ft 467 kts 22°
2026-04-21 01:54 38.90822 -112.71954 32068 ft 464 kts 22°
2026-04-21 01:54 38.93785 -112.70349 31569 ft 460 kts 22°
2026-04-21 01:55 38.96721 -112.68758 31092 ft 456 kts 22°
2026-04-21 01:55 38.99633 -112.67179 30611 ft 452 kts 22°
2026-04-21 01:55 39.02520 -112.65600 30153 ft 449 kts 22°
2026-04-21 01:55 39.05370 -112.64045 29927 ft 443 kts 21°
2026-04-21 01:56 39.08231 -112.62492 29665 ft 451 kts 21°
2026-04-21 01:56 39.11156 -112.60909 29409 ft 458 kts 21°
2026-04-21 01:56 39.14107 -112.59312 29135 ft 458 kts 21°
2026-04-21 01:56 39.17031 -112.57726 28866 ft 454 kts 21°
2026-04-21 01:57 39.19933 -112.56149 28591 ft 451 kts 21°
2026-04-21 01:57 39.22782 -112.54602 28326 ft 448 kts 21°
2026-04-21 01:57 39.25649 -112.53042 28061 ft 446 kts 21°
2026-04-21 01:57 39.28500 -112.51488 27793 ft 444 kts 21°
2026-04-21 01:58 39.31354 -112.50006 27525 ft 441 kts 17°
2026-04-21 01:58 39.34279 -112.48872 27290 ft 438 kts 13°
2026-04-21 01:58 39.37225 -112.47926 27041 ft 436 kts 11°
2026-04-21 01:58 39.40175 -112.47038 26784 ft 434 kts 11°
2026-04-21 01:59 39.43114 -112.46150 26533 ft 433 kts 11°
2026-04-21 01:59 39.46050 -112.45238 26283 ft 432 kts 12°
2026-04-21 01:59 39.48949 -112.44310 26043 ft 427 kts 12°
2026-04-21 01:59 39.51820 -112.43370 25793 ft 424 kts 12°
2026-04-21 02:00 39.54675 -112.42425 25370 ft 420 kts 12°
2026-04-21 02:00 39.57491 -112.41487 24945 ft 417 kts 12°
2026-04-21 02:00 39.60291 -112.40552 24490 ft 414 kts 12°
2026-04-21 02:00 39.63077 -112.39622 24021 ft 412 kts 12°
2026-04-21 02:01 39.65852 -112.38695 23550 ft 411 kts 12°
2026-04-21 02:01 39.68616 -112.37772 23023 ft 409 kts 12°
2026-04-21 02:01 39.71363 -112.36854 22523 ft 406 kts 12°
2026-04-21 02:01 39.74095 -112.35940 22047 ft 403 kts 12°
2026-04-21 02:02 39.76770 -112.35045 21589 ft 400 kts 13°
2026-04-21 02:02 39.79464 -112.34143 21139 ft 398 kts 13°
2026-04-21 02:02 39.82138 -112.33246 20691 ft 396 kts 13°
2026-04-21 02:02 39.84801 -112.32353 20241 ft 394 kts 13°
2026-04-21 02:03 39.87451 -112.31462 19788 ft 392 kts 13°
2026-04-21 02:03 39.90086 -112.30578 19333 ft 390 kts 13°
2026-04-21 02:03 39.92680 -112.29709 18886 ft 390 kts 13°
2026-04-21 02:03 39.95310 -112.28826 18428 ft 389 kts 13°
2026-04-21 02:04 39.97931 -112.27946 17957 ft 388 kts 13°
2026-04-21 02:04 40.00538 -112.27068 17505 ft 385 kts 13°
2026-04-21 02:04 40.03124 -112.26194 17076 ft 382 kts 13°
2026-04-21 02:04 40.05672 -112.25333 16830 ft 375 kts 13°
2026-04-21 02:05 40.08179 -112.24481 16634 ft 370 kts 13°
2026-04-21 02:05 40.09838 -112.23918 16510 ft 375 kts 14°
2026-04-21 02:05 40.12391 -112.23052 16303 ft 381 kts 13°
2026-04-21 02:05 40.14961 -112.22181 16088 ft 381 kts 13°
2026-04-21 02:06 40.17519 -112.21314 15867 ft 377 kts 14°
2026-04-21 02:06 40.20049 -112.20456 15644 ft 373 kts 14°
2026-04-21 02:06 40.22573 -112.19600 15452 ft 375 kts 13°
2026-04-21 02:06 40.25102 -112.18743 15241 ft 375 kts 13°
2026-04-21 02:07 40.27628 -112.17884 15019 ft 374 kts 13°
2026-04-21 02:07 40.30111 -112.17037 14810 ft 372 kts 13°
2026-04-21 02:07 40.32618 -112.16183 14617 ft 371 kts 14°
2026-04-21 02:07 40.35117 -112.15329 14424 ft 371 kts 14°
2026-04-21 02:08 40.37615 -112.14476 14216 ft 370 kts 14°
2026-04-21 02:08 40.40108 -112.13628 13993 ft 370 kts 14°
2026-04-21 02:08 40.42591 -112.12778 13872 ft 367 kts 14°
2026-04-21 02:08 40.45062 -112.11890 13524 ft 369 kts 13°
2026-04-21 02:09 40.47536 -112.11071 13371 ft 366 kts 13°
2026-04-21 02:09 40.50005 -112.10244 13184 ft 365 kts 13°
2026-04-21 02:09 40.52468 -112.09415 12984 ft 365 kts 13°
2026-04-21 02:09 40.54938 -112.08578 12706 ft 366 kts 13°
2026-04-21 02:10 40.57413 -112.08017 12475 ft 355 kts
2026-04-21 02:10 40.59825 -112.07887 12269 ft 338 kts 360°
2026-04-21 02:10 40.62125 -112.07803 12081 ft 324 kts
2026-04-21 02:10 40.64354 -112.07792 11934 ft 317 kts 354°
2026-04-21 02:11 40.66506 -112.08051 11839 ft 312 kts 352°
2026-04-21 02:11 40.68664 -112.08366 11732 ft 313 kts 352°
2026-04-21 02:11 40.70849 -112.08659 11598 ft 318 kts 352°
2026-04-21 02:11 40.73066 -112.08931 11469 ft 320 kts 353°
2026-04-21 02:12 40.75276 -112.09191 11327 ft 318 kts 353°
2026-04-21 02:12 40.77480 -112.09452 11183 ft 316 kts 353°
2026-04-21 02:12 40.79675 -112.09713 11067 ft 319 kts 353°
2026-04-21 02:12 40.81894 -112.09975 10999 ft 319 kts 353°
2026-04-21 02:13 40.84104 -112.10258 10967 ft 314 kts 352°
2026-04-21 02:13 40.86214 -112.10575 10981 ft 301 kts 351°
2026-04-21 02:13 40.88225 -112.10905 10961 ft 281 kts 351°
2026-04-21 02:13 40.90111 -112.11235 10949 ft 270 kts 350°
2026-04-21 02:14 40.91969 -112.11578 10901 ft 269 kts 350°
2026-04-21 02:14 40.93822 -112.11917 10761 ft 268 kts 351°
2026-04-21 02:14 40.95668 -112.12247 10573 ft 269 kts 351°
2026-04-21 02:14 40.97524 -112.12583 10295 ft 269 kts 351°
2026-04-21 02:15 40.99381 -112.12901 10005 ft 269 kts 351°
2026-04-21 02:15 41.01244 -112.13197 9702 ft 268 kts 353°
2026-04-21 02:15 41.03088 -112.13083 9344 ft 267 kts 20°
2026-04-21 02:15 41.04543 -112.11683 9018 ft 256 kts 56°
2026-04-21 02:16 41.05259 -112.09629 8723 ft 244 kts 80°
2026-04-21 02:16 41.05377 -112.07451 8396 ft 231 kts 102°
2026-04-21 02:16 41.04974 -112.05477 8096 ft 213 kts 119°
2026-04-21 02:16 41.04116 -112.03971 8066 ft 205 kts 142°
2026-04-21 02:17 41.02971 -112.02897 8021 ft 199 kts 158°
2026-04-21 02:17 41.01678 -112.02386 8014 ft 191 kts 175°
2026-04-21 02:17 41.00337 -112.02204 7992 ft 195 kts 178°
2026-04-21 02:17 40.98954 -112.02052 7675 ft 198 kts 177°
2026-04-21 02:18 40.97597 -112.01898 7412 ft 192 kts 177°
2026-04-21 02:18 40.96286 -112.01747 7168 ft 192 kts 176°
2026-04-21 02:18 40.94941 -112.01590 6901 ft 195 kts 177°
2026-04-21 02:18 40.93588 -112.01430 6679 ft 194 kts 176°
2026-04-21 02:19 40.92246 -112.01274 6479 ft 193 kts 176°
2026-04-21 02:19 40.90905 -112.01118 6284 ft 190 kts 176°
2026-04-21 02:19 40.89639 -112.00968 6058 ft 176 kts 177°
2026-04-21 02:19 40.88475 -112.00833 5866 ft 167 kts 177°
2026-04-21 02:20 40.87320 -112.00702 5608 ft 165 kts 178°
2026-04-21 02:20 40.86201 -112.00553 5312 ft 158 kts 176°
2026-04-21 02:20 40.85119 -112.00417 5080 ft 153 kts 180°
2026-04-21 02:20 40.84080 -112.00311 4929 ft 147 kts 177°
2026-04-21 02:21 40.83066 -112.00189 4717 ft 145 kts 179°
2026-04-21 02:21 40.82024 -112.00073 4526 ft 154 kts 179°
2026-04-21 02:21 40.80933 -111.99948 4287 ft 157 kts 179°
2026-04-21 02:21 40.79959 -111.99833 4237 ft 127 kts 180°
2026-04-21 02:22 40.79246 -111.99752 4230 ft 72 kts 174°
2026-04-21 02:22 40.78865 -111.99689 4230 ft 41 kts 158°
2026-04-21 02:22 40.78737 -111.99563 4231 ft 12 kts 136°
2026-04-21 02:22 40.78717 -111.99537 4231 ft 0 kts 136°
2026-04-21 02:23 40.78706 -111.99524 4231 ft 5 kts 137°
2026-04-21 02:23 40.78662 -111.99475 4229 ft 11 kts 133°
2026-04-21 02:24 40.78646 -111.99376 4230 ft 11 kts 85°
2026-04-21 02:24 40.78652 -111.99275 4230 ft 11 kts 86°
2026-04-21 02:24 40.78659 -111.99174 4230 ft 12 kts 85°
2026-04-21 02:24 40.78667 -111.99061 4230 ft 13 kts 85°
2026-04-21 02:25 40.78668 -111.98975 4228 ft 6 kts 115°
2026-04-21 02:25 40.78640 -111.98956 4230 ft 3 kts 169°
2026-04-21 02:25 40.78621 -111.98953 4230 ft 2 kts 174°
2026-04-21 02:25 40.78609 -111.98951 4230 ft 2 kts 174°
2026-04-21 02:26 40.78602 -111.98951 4230 ft 1 kts 174°
2026-04-21 02:26 40.78601 -111.98951 4230 ft 0 kts 175°